Skip Page Navigation
NASA JPL Caltech
NASA Logo - Jet Propulsion Laboratory + View the NASA Portal
+ Center for Near-Earth Object Studies
JPL Home Earth Solar System Stars & Galaxies Technology
JPL Solar System Dynamics
BODIES ORBITS EPHEMERIDES TOOLS PHYSICAL DATA DISCOVERY FAQ SITE MAP
JPL Small-Body Database Browser
Search: [ help ]  
332858 (2010 TX176)
Classification: Main-belt Asteroid          SPK-ID: 2332858
Ephemeris | Orbit Diagram | Orbital Elements | Mission Design | Physical Parameters | Discovery Circumstances ]

[ show orbit diagram ]
Orbital Elements at Epoch 2459000.5 (2020-May-31.0) TDB
Reference: JPL 11 (heliocentric ecliptic J2000)
 Element Value Uncertainty (1-sigma)   Units 
e .2677779071266009 9.5037e-08  
a 2.413592838663285 3.6672e-08 au
q 1.767285999670279 2.1049e-07 au
i 21.8614760772821 9.1802e-06 deg
node 226.1147272277223 1.9944e-05 deg
peri 231.2819102099618 3.0925e-05 deg
M 172.9568077258326 2.7241e-05 deg
tp 2458342.494384644430
(2018-Aug-11.99438464)
9.2216e-05 TDB
period 1369.602183589705
3.75
3.1215e-05
8.546e-08
d
yr
n .2628500482208971 5.9907e-09 deg/d
Q 3.059899677656292 4.6493e-08 au
  Orbit Determination Parameters
   # obs. used (total)      155  
   data-arc span      5524 days (15.12 yr)  
   first obs. used      2004-03-19  
   last obs. used      2019-05-04  
   planetary ephem.      DE431  
   SB-pert. ephem.      SB431-N16  
   condition code      0  
   norm. resid. RMS      .60686  
   source      ORB  
   producer      Otto Matic  
   solution date      2020-Feb-25 21:11:56  

Additional Information
 Earth MOID = .845532 au 
 Jupiter MOID = 2.42516 au 
 T_jup = 3.374 
[ hide covariance matrix ]
Orbital Elements at Epoch 2457472.5 (2016-Mar-25.0) TDB
Reference: JPL 11 (heliocentric ecliptic J2000)
 Element Value Uncertainty (1-sigma)   Units 
e .2689213877468218 9.5067e-08  
q 1.762724291742819 2.107e-07 au
tp 2456975.042323533078
(2014-Nov-13.54232353)
7.2425e-05 TDB
node 226.1550040639196 1.9928e-05 deg
peri 231.159345213112 3.0822e-05 deg
i 21.88491501934677 9.1854e-06 deg
  Orbit Determination Parameters
   # obs. used (total)      155  
   data-arc span      5524 days (15.12 yr)  
   first obs. used      2004-03-19  
   last obs. used      2019-05-04  
   planetary ephem.      DE431  
   SB-pert. ephem.      SB431-N16  
   condition code      0  
   norm. resid. RMS      .60686  
   source      ORB  
   producer      Otto Matic  
   solution date      2020-Feb-25 21:11:56  

Additional Information
 Jupiter MOID = 2.42516 au 
 T_jup = 3.374 
Orbit Covariance (6×6)
  e q tp node peri i
e 9.037770094176011E-15 -1.995630025454996E-14 1.682398933639475E-12 6.712021883085964E-14 2.200169350357958E-13 -6.860188531558899E-14
q -1.995630025454996E-14 4.439564315626493E-14 -3.115585509300772E-12 -1.483675480635323E-13 -2.66544843622752E-13 1.481173276812461E-13
tp 1.682398933639475E-12 -3.115585509300772E-12 5.245349331774864E-9 3.617465543658932E-12 1.710252353569479E-9 -4.930254852538464E-11
node 6.712021883085964E-14 -1.483675480635323E-13 3.617465543658932E-12 3.971208751999512E-10 -3.707322173927656E-10 -3.323635923918866E-11
peri 2.200169350357958E-13 -2.66544843622752E-13 1.710252353569479E-9 -3.707322173927656E-10 9.500092589810677E-10 1.783629929394668E-11
i -6.860188531558899E-14 1.481173276812461E-13 -4.930254852538464E-11 -3.323635923918866E-11 1.783629929394668E-11 8.437178452105506E-11

Ephemeris | Orbit Diagram | Orbital Elements | Mission Design | Physical Parameters | Discovery Circumstances ]

Physical Parameter Table
Parameter Symbol Value Units Sigma Reference Notes
absolute magnitude H 16.6   n/a MPO423233  

332858 (2010 TX176)          Discovered 2006-Sep-28 by CSS at Catalina
Reference: 20120703/Numbers.arcLast Updated: 2012-07-09
Ephemeris | Orbit Diagram | Orbital Elements | Mission Design | Physical Parameters | Discovery Circumstances ]
ABOUT SSD CREDITS/AWARDS PRIVACY/COPYRIGHT GLOSSARY LINKS
FirstGov 2020-Oct-24 18:17 UT
(server date/time)  
NASA Home Page
Site Manager:   Ryan S. Park
Webmaster  Alan B. Chamberlin